Location: Much Hadham
(51.8500°N, 0.0833°E)
Time: 15:29:41
(UTC+00:00)

Daily predictions for brighter satellites

Satellite Brightness Start Highest point End
(mag) Time Altitude Azimuth Time Altitude Azimuth Time Altitude Azimuth
SL-16 R/B 4.3 16:21:24 10° NW 16:23:50 13° NNW 16:26:16 10° N
NOAA 11 4.2 16:19:56 10° SSE 16:25:21 77° ENE 16:30:49 10° NNW
USA 305 3.0 16:23:08 10° WNW 16:27:22 67° N 16:31:37 10° E
CZ-2C R/B 4.4 16:27:40 10° ENE 16:28:59 11° E 16:30:18 10° E
Cosmos 2219 Rocket 4.0 16:26:42 10° N 16:29:32 14° NNE 16:32:22 10° NE
Cosmos 1842 Rocket 3.7 16:25:08 10° S 16:29:37 89° ENE 16:34:09 10° N
SL-24 R/B - RUBIN 2 3.7 16:25:09 10° NW 16:29:46 82° SW 16:34:07 10° SE
Meteor 1-25 Rocket 4.2 16:24:21 10° N 16:29:57 71° ENE 16:35:34 10° SSE
Nadezhda 4 Rocket 4.2 16:24:51 10° N 16:31:13 87° W 16:37:34 10° S
Cosmos 1500 3.7 16:29:56 10° N 16:33:26 36° ENE 16:36:54 10° SE
H-2A R/B 4.1 16:30:24 10° S 16:33:53 42° W 16:37:24 10° NNW
Cosmos 1606 3.5 16:30:21 10° SSW 16:34:03 54° WNW 16:37:49 10° N
CZ-4B R/B 2.8 16:30:25 10° SSE 16:34:13 55° ENE 16:37:53 10° N
Cosmos 44 Rocket 3.5 16:29:31 10° NW 16:34:24 51° NE 16:39:06 10° ESE
Cosmos 1464 Rocket 4.2 16:28:03 10° SSW 16:34:26 83° W 16:40:51 10° N
COSMOS 2406 3.4 16:35:54 10° SSW 16:41:32 60° ESE 16:47:10 10° NE
Cosmos 468 Rocket 4.0 16:37:36 10° SSW 16:42:47 84° ESE 16:48:03 10° NNE
Meteor 1-31 Rocket 4.2 16:42:30 10° S 16:46:07 41° W 16:49:46 10° NNW
Cosmos 1428 Rocket 4.5 16:40:21 10° N 16:46:29 68° ENE 16:52:37 10° SSE
Cosmos 1092 Rocket 4.0 16:45:13 10° N 16:51:37 82° ENE 16:57:57 10° SSE
Meteor 2-21 4.4 16:49:07 10° N 16:55:12 70° ENE 17:01:14 10° SSE
CZ-4B R/B 3.8 16:50:35 10° ESE 16:55:14 31° ENE 16:59:51 10° N
USA 267 3.9 16:50:26 11° ENE 16:56:25 40° SE 17:02:29 10° SSW
CZ-2D R/B 3.9 16:53:52 10° SE 16:57:16 32° ENE 17:00:41 10° N
ATLAS CENTAUR R/B 3.0 16:48:09 10° SW 16:57:58 67° SSE 17:01:31 14° ENE
SL-16 R/B 4.4 16:53:52 10° N 16:58:35 23° NW 17:03:18 10° W
USA 306 2.9 16:55:28 10° WNW 16:59:44 75° NNE 17:03:51 11° E
Cosmos 1939 Rocket 2.8 16:55:49 10° SSE 16:59:52 69° ENE 17:03:55 10° N
Cosmos 1633 Rocket 3.5 16:56:12 10° N 17:00:22 40° ENE 17:04:31 10° SE
COSMO-SKYMED 1 4.2 16:59:11 14° ENE 17:00:38 16° E 17:03:17 10° SE
Cosmos 1666 3.0 16:58:37 10° N 17:02:11 42° ENE 17:05:43 10° SSE
Cosmos 1151 Rocket 3.7 16:58:34 10° SSE 17:02:27 33° E 17:06:23 10° NNE
Cosmos 2360 Rocket 3.2 16:59:06 10° NNW 17:03:53 27° NE 17:08:17 11° E
Cosmos 1782 2.8 17:00:31 10° S 17:04:26 58° E 17:08:22 10° NNE
ISS -1.0 17:02:19 10° W 17:04:57 21° SW 17:07:35 10° SSE
SeaSat 1 3.5 17:03:29 10° NNE 17:08:06 41° NW 17:12:44 10° WSW
SL-08 R/B 3.4 17:03:47 10° NNE 17:08:30 79° WNW 17:13:08 10° SSW
Cosmos 1763 Rocket 3.9 17:04:07 10° SW 17:09:09 61° WNW 17:14:17 10° NNE
Cosmos 1818 3.5 17:04:27 10° NW 17:09:59 82° NE 17:15:27 10° SE
PAYLOAD B 4.4 17:04:36 10° SE 17:10:02 54° ENE 17:15:29 10° N
YAOGAN 1 4.1 17:11:21 16° NE 17:11:21 16° NE 17:13:42 10° NNE
NOAA 12 4.5 17:07:17 10° S 17:12:35 70° WSW 17:17:54 10° NNW
Meteor 2-14 Rocket 4.5 17:08:22 10° NNW 17:14:31 88° W 17:20:35 10° S
ATLAS 5 CENTAUR R/B 2.6 17:07:28 10° NW 17:17:02 61° NNE 17:19:39 16° ESE
Cosmos 1536 4.3 17:14:29 10° NNE 17:16:30 18° NE 17:16:30 18° NE
Cosmos 2279 Rocket 4.1 17:12:35 10° SSE 17:18:33 52° E 17:24:32 10° NNE
CZ-4C R/B 4.4 17:15:40 10° N 17:19:15 40° WNW 17:22:39 10° SW
Cosmos 2266 Rocket 4.4 17:13:15 10° N 17:19:16 41° ENE 17:25:17 10° SE
Cosmos 841 Rocket 3.4 17:14:12 10° SSW 17:19:21 82° ESE 17:24:31 10° NNE
ERBS 3.2 17:16:35 10° WNW 17:19:31 31° N 17:20:46 23° NE
USA 307 2.8 17:16:02 10° WNW 17:20:19 81° NNE 17:23:32 17° ESE
CZ-4C R/B 3.3 17:13:46 10° NW 17:20:49 71° SW 17:29:07 10° SSE
Lacrosse 5 rocket 1.7 17:19:31 10° WNW 17:23:21 61° SW 17:27:22 10° SE
NOSS 3-4 (A) 4.3 17:18:29 10° NW 17:24:27 37° NNE 17:28:52 19° ENE
NOSS 3-4 (C) 4.3 17:18:35 10° NW 17:24:34 37° NNE 17:28:56 19° ENE
ATLAS 2AS CENTAUR R/B 3.8 17:20:05 10° WNW 17:26:55 33° N 17:31:18 19° NE
Cosmos 2322 Rocket 2.4 17:21:29 10° NNW 17:27:01 47° NE 17:32:31 10° SE
Cosmos 1933 Rocket 4.2 17:23:32 10° N 17:27:24 30° ENE 17:31:14 10° SE
COSMOS 2428 4.1 17:23:24 10° NNW 17:27:27 19° NNE 17:28:43 18° NE
Cosmos 2208 Rocket 4.4 17:23:43 10° S 17:28:53 47° ESE 17:32:51 17° NE
Cosmos 2150 Rocket 4.0 17:23:51 10° NNW 17:29:00 60° ENE 17:34:10 10° SE
Cosmos 1666 Rocket 3.5 17:25:32 10° N 17:30:00 89° ENE 17:34:24 10° S
Cosmos 1980 Rocket 3.2 17:24:45 10° NW 17:30:12 49° WSW 17:35:35 10° S
AQUARIUS 4.3 17:26:45 10° S 17:31:14 78° WSW 17:35:45 10° NNW
USA 234 3.4 17:25:36 10° SE 17:32:09 79° SSW 17:38:43 10° WNW
Cosmos 1328 Rocket 3.8 17:28:12 10° SSE 17:32:27 47° E 17:36:01 14° NNE
Cosmos 1470 Rocket 3.7 17:29:12 10° N 17:33:35 51° ENE 17:37:57 10° SSE
Cosmos 1544 3.5 17:30:19 10° N 17:33:43 37° ENE 17:37:06 10° SE
Cosmos 1125 Rocket 3.5 17:30:01 10° NNW 17:35:14 63° ENE 17:40:28 10° SE
CORIOLIS 4.4 17:31:23 10° S 17:36:47 73° WSW 17:42:16 10° NNW
Cosmos 1812 2.6 17:34:22 10° S 17:38:13 81° E 17:41:44 12° NNE
PSLV R/B 3.7 17:35:35 10° SSE 17:39:17 85° WSW 17:43:06 10° NNW
H-2A R/B 1.9 17:35:01 10° SSE 17:40:07 79° ENE 17:45:07 10° NNW
Meteor 1-11 Rocket 3.9 17:35:07 10° N 17:40:36 50° ENE 17:46:10 10° SE
Cosmos 1634 Rocket 4.2 17:34:39 10° SSW 17:40:59 78° WNW 17:47:21 10° N
Okean O Rocket 1.8 17:37:37 10° SE 17:41:54 49° ENE 17:46:13 10° N
Meteor 2-8 Rocket 4.5 17:36:27 10° S 17:42:27 58° E 17:48:31 10° NNE
ATLAS CENTAUR R/B 3.6 17:39:32 10° NW 17:42:34 17° N 17:44:13 15° NNE
USA 308 2.8 17:38:44 10° WNW 17:43:01 86° SSW 17:45:21 26° ESE
GEOS 3 Rocket 4.1 17:41:55 26° ENE 17:44:11 39° NNE 17:48:58 10° NW
SL-16 R/B 2.1 17:42:02 10° NNW 17:47:45 77° ENE 17:53:25 10° SE
Cosmos 2237 Rocket 4.0 17:45:41 10° N 17:48:43 14° NNE 17:49:04 14° NNE
SKYMED 2 3.9 17:47:47 32° NE 17:49:09 41° E 17:53:15 10° S
Cosmos 540 Rocket 4.3 17:46:26 10° SW 17:51:22 48° WNW 17:56:07 11° NNE
ARGOS 3.1 17:46:41 10° SSE 17:52:01 65° ENE 17:57:23 10° N
Cosmos 2082 Rocket 2.4 17:46:51 10° SW 17:52:32 73° WNW 17:56:57 17° NNE
H-2A R/B 4.4 17:56:25 15° N 17:56:25 15° N 17:57:18 10° N
SMAP 4.4 17:51:12 10° S 17:55:36 42° W 18:00:03 10° NNW
CZ-4 R/B 3.5 17:58:55 14° N 17:58:55 14° N 17:59:32 10° N
deb Chang Zheng 4 3.4 17:53:09 10° SSE 17:57:27 76° ENE 18:01:47 10° NNW
COSMOS 2455 3.2 17:54:48 10° SW 18:00:47 64° NW 18:04:54 21° NNE
Cosmos 1833 Rocket 4.0 18:00:59 10° WSW 18:06:08 35° NW 18:10:35 13° NNE
Feng Yun 1-1 Rocket 4.3 18:01:11 10° SE 18:06:58 60° ENE 18:12:41 10° N
USA 305 3.2 18:03:04 10° WNW 18:07:17 64° SSW 18:08:52 36° SE
Cosmos 2333 Rocket 2.7 18:02:10 10° NNW 18:07:32 37° NE 18:08:05 36° ENE
Cosmos 1356 Rocket 3.3 18:04:05 10° N 18:08:19 78° ENE 18:12:34 10° SSE
CZ-2C R/B 2.4 18:06:50 21° NNE 18:10:20 67° ESE 18:15:28 10° S
SL-16 R/B 4.2 18:08:34 10° N 18:10:44 12° NNE 18:11:02 12° NNE
Cosmos 2219 Rocket 2.9 18:10:09 10° NNW 18:15:05 34° NE 18:15:05 34° NE
Cosmos 1655 Rocket 4.0 18:09:42 10° N 18:16:09 86° W 18:22:30 10° S
Aureole 3 Rocket 3.8 18:14:13 10° SSE 18:18:54 54° E 18:25:31 10° NNE
Cosmos 1515 Rocket 3.4 18:15:07 10° S 18:19:33 76° E 18:20:26 55° NNE
Cosmos 921 Rocket 2.9 18:17:44 10° SSW 18:21:58 86° WNW 18:22:47 58° NNE
Spot 2 4.4 18:23:28 23° SSE 18:26:38 68° ENE 18:31:40 10° N
Cosmos 371 Rocket 3.4 18:29:43 10° NNW 18:33:50 57° NNE 18:33:50 57° NNE
Cosmos 2333 4.3 18:29:48 10° NNW 18:35:32 57° NE 18:35:32 57° NE
CZ-4B R/B 3.9 18:30:23 10° S 18:35:36 51° W 18:40:48 10° NNW
COSMO-SKYMED 1 2.7 18:36:23 53° N 18:37:18 72° WNW 18:41:38 10° SSW
USA 306 3.7 18:35:26 10° WNW 18:39:28 44° SSW 18:39:52 43° SSW
USA 267 3.2 18:37:47 48° ENE 18:39:53 87° NNW 18:46:27 10° WSW
MOS 1-B Rocket 4.4 18:34:22 10° N 18:40:15 65° WNW 18:46:57 10° SSW
Meteor 2-15 Rocket 4.4 18:38:11 10° SSW 18:44:18 81° WNW 18:50:07 12° N
Meteor 1-27 Rocket 3.5 18:40:01 10° S 18:45:32 83° E 18:46:30 62° NNE
YAOGAN 1 3.8 18:48:29 33° NNW 18:48:29 33° NNW 18:50:58 10° NNW
Cosmos 836 Rocket 4.4 18:43:01 10° SSW 18:48:20 85° ESE 18:48:20 85° ESE
Cosmos 2360 Rocket 2.2 18:42:51 10° NNW 18:48:34 82° WSW 18:50:08 50° SSE
Cosmos 1536 4.5 18:50:12 10° NNW 18:52:18 28° NNW 18:52:18 28° NNW
USA 307 4.2 18:56:04 10° WNW 18:59:35 36° SW 18:59:35 36° SW
Lacrosse 5 rocket 4.2 18:59:54 10° W 19:01:49 13° SW 19:03:47 10° SSW
Cosmos 2322 Rocket 3.5 19:05:45 10° NW 19:11:00 39° WSW 19:16:14 10° S
COSMOS 2428 3.7 19:07:15 10° NNW 19:10:45 36° N 19:10:45 36° N
NOSS 3-4 (A) 3.6 19:09:28 10° NW 19:16:16 80° NE 19:16:19 80° NE
NOSS 3-4 (C) 3.6 19:09:35 10° NW 19:16:23 80° NE 19:16:23 80° NE
Okean O Rocket 3.9 19:14:54 10° SSW 19:18:30 24° W 19:22:08 10° NW
ATLAS 2AS CENTAUR R/B 3.2 19:12:14 10° NW 19:18:44 49° N 19:18:44 49° N
Cosmos 1867 4.3 19:15:18 10° SW 19:19:10 48° SW 19:19:10 48° SW
GEOS 3 Rocket 4.2 19:23:03 55° WNW 19:23:03 55° WNW 19:27:15 10° NW
ATLAS CENTAUR R/B 4.1 19:19:17 10° NNW 19:20:20 14° NNW 19:20:20 14° NNW
ATLAS CENTAUR R/B 4.1 19:23:59 10° W 19:27:08 25° WNW 19:27:08 25° WNW
SL-16 R/B 4.5 19:27:02 10° NW 19:31:14 22° WSW 19:35:27 10° SSW
Cosmos 2237 Rocket 4.2 19:29:13 10° NNW 19:30:53 19° NNW 19:30:53 19° NNW
Cosmos 2082 Rocket 4.1 19:33:19 10° W 19:37:37 21° NW 19:38:48 20° NNW
Cosmos 2333 Rocket 3.5 19:46:26 10° NW 19:50:07 37° WNW 19:50:07 37° WNW
Cosmos 2219 Rocket 3.8 19:54:02 10° NW 19:56:49 29° NW 19:56:49 29° NW
USA 267 4.4 20:25:08 38° WNW 20:25:08 38° WNW 20:29:06 10° W
